FW5214 Weather Reports


time (UTC)temp
C
wind
direction
speed
KPH
gust
KPH
rain 1hr
cm
rain 24hr
cm
rain mn
cm
humidity
%
barometer
mb
20260507183014 15 360 3.2 14.5 0.00 0.64 0.38 85 1014.1
20260507181512 15 360 4.8 14.5 0.00 0.64 0.38 84 1014.1
20260507180017 16 360 4.8 12.9 0.00 0.64 0.38 82 1013.9
20260507174518 16 360 6.4 16.1 0.00 0.64 0.38 82 1013.8
20260507173018 16 360 9.7 16.1 0.00 0.64 0.38 81 1013.9
20260507171520 16 360 3.2 16.1 0.00 0.64 0.38 80 1014.0
20260507170010 16 360 4.8 14.5 0.00 0.64 0.38 78 1014.3
20260507164509 16 360 4.8 14.5 0.00 0.69 0.38 78 1014.2
20260507163007 17 360 8.0 19.3 0.00 0.69 0.38 77 1014.2
20260507161508 17 360 4.8 9.7 0.00 0.69 0.38 79 1014.3
20260507160009 17 360 6.4 14.5 0.00 0.69 0.38 77 1014.2
20260507154508 17 360 4.8 16.1 0.00 0.71 0.38 76 1014.3
20260507153006 17 360 4.8 8.0 0.00 0.71 0.38 76 1014.3
20260507151506 17 360 4.8 8.0 0.00 0.71 0.38 76 1014.2
20260507150104 17 360 1.6 9.7 0.00 0.71 0.38 77 1014.4
20260507144505 17 360 0.0 4.8 0.00 0.71 0.38 79 1014.4
20260507143001 17 360 1.6 4.8 0.00 0.71 0.38 80 1014.3
20260507141501 18 360 1.6 4.8 0.00 0.71 0.38 80 1014.6
20260507140107 18 360 0.0 4.8 0.00 0.71 0.38 80 1014.7
20260507134600 17 360 0.0 4.8 0.00 0.71 0.38 81 1014.8
20260507133147 17 360 0.0 4.8 0.00 0.71 0.38 81 1014.9
20260507131600 17 360 0.0 0.0 0.00 0.71 0.38 81 1015.1
20260507130107 17 360 0.0 4.8 0.00 0.71 0.38 80 1015.2
20260507124606 17 360 0.0 4.8 0.00 0.71 0.38 80 1015.2
20260507123057 17 360 0.0 0.0 0.00 0.71 0.38 82 1015.0
20260507121556 17 360 0.0 0.0 0.00 0.71 0.38 80 1015.1
20260507120056 18 360 1.6 8.0 0.00 0.71 0.38 82 1015.2
20260507114655 18 360 0.0 0.0 0.00 0.71 0.38 80 1015.0
20260507113054 18 360 0.0 0.0 0.00 0.71 0.38 78 1015.0
20260507111555 18 360 1.6 8.0 0.00 0.71 0.38 80 1015.1
20260507110050 17 360 1.6 6.4 0.00 0.71 0.38 82 1015.1
20260507104546 17 360 1.6 4.8 0.00 0.71 0.38 85 1015.1
20260507103048 16 360 0.0 9.7 0.00 0.71 0.38 85 1015.2
20260507101544 16 360 0.0 3.2 0.00 0.71 0.38 88 1015.2
20260507100038 16 360 0.0 4.8 0.00 0.71 0.38 90 1015.3
20260507094539 15 360 3.2 6.4 0.00 0.71 0.38 90 1015.4
20260507093031 15 360 0.0 4.8 0.00 0.71 0.38 92 1015.3
20260507091533 15 360 3.2 8.0 0.00 0.71 0.38 92 1015.2
20260507090028 15 360 3.2 8.0 0.00 0.71 0.38 92 1015.1
20260507084525 14 360 4.8 9.7 0.00 0.71 0.38 93 1015.1
20260507083024 14 360 4.8 9.7 0.03 0.71 0.38 94 1014.9
20260507081525 13 360 3.2 4.8 0.03 0.71 0.38 94 1014.9
20260507080020 13 360 0.0 3.2 0.05 0.71 0.38 95 1014.8
20260507074519 13 360 1.6 6.4 0.05 0.71 0.38 94 1014.9
20260507073018 13 360 0.0 8.0 0.05 0.71 0.36 94 1014.8
20260507071519 13 360 0.0 6.4 0.08 0.71 0.36 94 1014.7
20260507070027 13 360 1.6 4.8 0.08 0.69 0.33 94 1014.8
20260507064517 13 360 1.6 6.4 0.08 0.66 0.33 94 1014.7
20260507063012 13 360 3.2 14.5 0.05 0.64 0.30 93 1014.4
20260507061512 13 360 1.6 8.0 0.05 0.61 0.28 94 1014.4
20260507060013 13 360 0.0 4.8 0.15 0.61 0.25 95 1014.2
20260507054511 13 360 1.6 6.4 0.23 0.58 0.23 94 1014.0
20260507053007 13 360 0.0 8.0 0.23 0.58 0.23 93 1014.0
20260507051504 13 360 0.0 3.2 0.23 0.58 0.23 93 1013.9
20260507050010 13 360 1.6 4.8 0.05 0.41 0.05 91 1014.0
20260507044628 13 360 1.6 4.8 0.00 0.33 0.00 92 1013.4
20260507043058 12 360 1.6 6.4 0.00 0.33 0.00 95 1013.1
20260507041555 12 360 0.0 0.0 0.00 0.33 0.00 95 1012.9
20260507040058 12 360 0.0 1.6 0.00 0.33 0.00 95 1012.8
20260507034556 12 360 0.0 4.8 0.00 0.33 0.00 95 1012.5
20260507033104 12 360 0.0 0.0 0.00 0.33 0.00 95 1012.6
20260507031559 12 360 0.0 0.0 0.00 0.33 0.00 95 1012.6
20260507030106 13 360 1.6 6.4 0.00 0.33 0.00 95 1012.6
20260507024606 13 360 0.0 4.8 0.00 0.33 0.00 95 1012.5
20260507023048 13 360 0.0 0.0 0.00 0.33 0.00 95 1012.3
20260507021554 13 360 0.0 3.2 0.00 0.33 0.00 95 1012.4
20260507020056 12 360 0.0 1.6 0.00 0.33 0.00 95 1012.3
20260507014554 12 360 0.0 1.6 0.00 0.33 0.00 95 1012.3
20260507013045 13 360 0.0 3.2 0.00 0.33 0.00 95 1012.1
20260507011548 13 360 0.0 6.4 0.00 0.33 0.00 95 1012.1
20260507010046 13 360 0.0 0.0 0.00 0.33 0.00 95 1012.1
20260507004542 13 360 1.6 4.8 0.00 0.33 0.00 94 1012.0
20260507003040 13 360 0.0 0.0 0.00 0.33 0.00 95 1012.1
20260507001539 13 360 0.0 4.8 0.00 0.33 0.00 94 1012.0
20260507000037 13 360 1.6 4.8 0.00 0.33 0.00 94 1012.1
20260506234545 14 360 0.0 4.8 0.00 0.33 0.00 94 1012.0
20260506233032 14 360 0.0 6.4 0.00 0.33 0.00 94 1012.1
20260506231533 15 360 0.0 0.0 0.00 0.33 0.00 94 1012.2
20260506230028 15 360 0.0 0.0 0.00 0.33 0.00 95 1012.2
20260506224527 15 360 0.0 0.0 0.00 0.33 0.00 95 1012.1
20260506223026 15 360 0.0 0.0 0.00 0.33 0.00 96 1012.0
20260506221525 15 360 0.0 3.2 0.00 0.33 0.00 96 1012.2
20260506220023 15 360 0.0 0.0 0.00 0.33 0.00 96 1012.2
20260506214523 15 360 0.0 3.2 0.00 0.33 0.33 96 1012.3
20260506213022 15 360 0.0 3.2 0.00 0.33 0.33 95 1012.4
20260506211524 15 360 0.0 6.4 0.00 0.33 0.33 95 1012.4
20260506210026 15 360 3.2 6.4 0.00 0.33 0.33 95 1012.3
20260506204520 16 360 3.2 4.8 0.00 0.33 0.33 94 1012.3
20260506203023 16 360 0.0 1.6 0.00 0.33 0.33 94 1012.3
20260506201520 16 360 0.0 6.4 0.03 0.33 0.33 94 1012.4
20260506200019 16 360 3.2 6.4 0.05 0.33 0.33 94 1012.4
20260506194519 16 360 0.0 0.0 0.15 0.33 0.33 93 1012.3
20260506193018 16 360 0.0 0.0 0.15 0.33 0.33 93 1012.2
20260506191518 16 360 0.0 6.4 0.13 0.33 0.33 92 1012.1
20260506190018 16 360 1.6 6.4 0.23 0.30 0.30 91 1012.3
20260506184516 16 360 4.8 12.9 0.13 0.20 0.20 90 1012.4